Temp
-21 -21 -22 -22 -22 -22 -22 -22 -22 -22 -22 -22 -23 -23 -23 -23 -23 -23 -23 -23 -24 -24 -24 -24 -24 -24 -24 -24 -24 -24 -24 -24 -24 -25 -25 -25 -25 -25 -25 -25 -25 -25 -26 -27 -27 -27 -27 -27 -27 -27 -27 -27 -28 -28 -28 -28 -28 -28 -28 -28 -28 -28 -28
-22 -22 -22 -22 -22 -23 -23 -23 -23 -23 -23 -23 -23 -23 -23 -23 -23 -24 -24 -24 -24 -24 -24 -24 -24 -24 -24 -24 -24 -24 -24 -25 -25 -25 -25 -25 -25 -25 -26 -26 -26 -26 -26 -26 -27 -27 -27 -27 -27 -28 -28 -28 -28 -28 -28 -28 -28 -28 -28 -28 -28 -29 -29
-22 -22 -22 -23 -23 -23 -23 -23 -23 -23 -23 -23 -23 -23 -24 -24 -24 -24 -24 -24 -24 -24 -24 -24 -24 -24 -24 -24 -24 -25 -25 -25 -25 -25 -25 -25 -25 -26 -26 -26 -26 -26 -26 -26 -27 -27 -28 -28 -28 -28 -28 -28 -28 -28 -28 -28 -29 -29 -29 -29 -29 -29 -29
-23 -23 -23 -23 -23 -23 -23 -23 -23 -23 -23 -23 -24 -24 -24 -24 -24 -24 -24 -24 -24 -24 -24 -24 -25 -25 -25 -24 -25 -25 -25 -25 -25 -25 -25 -25 -26 -26 -26 -26 -26 -26 -26 -26 -27 -27 -28 -28 -28 -28 -28 -28 -29 -29 -29 -29 -29 -29 -29 -29 -29 -29 -29
-23 -23 -23 -24 -24 -24 -24 -24 -24 -24 -24 -24 -24 -24 -24 -24 -24 -24 -24 -24 -24 -24 -25 -25 -25 -25 -25 -25 -25 -25 -25 -25 -25 -25 -25 -26 -26 -26 -26 -26 -26 -26 -26 -26 -27 -27 -28 -28 -28 -29 -29 -29 -29 -29 -29 -29 -29 -29 -29 -29 -29 -29 -29
-24 -24 -24 -24 -24 -24 -24 -24 -24 -24 -24 -24 -25 -25 -25 -25 -25 -25 -25 -25 -25 -25 -25 -25 -25 -25 -25 -25 -25 -25 -25 -25 -25 -26 -26 -26 -26 -26 -26 -26 -26 -27 -27 -27 -27 -27 -28 -28 -28 -29 -29 -29 -29 -29 -29 -29 -29 -29 -30 -30 -30 -30 -30
-24 -24 -24 -24 -24 -24 -24 -25 -25 -25 -25 -25 -25 -25 -25 -25 -25 -25 -25 -25 -25 -25 -25 -25 -25 -25 -25 -25 -26 -26 -26 -26 -26 -26 -26 -26 -26 -26 -26 -27 -27 -27 -27 -27 -27 -27 -28 -28 -28 -29 -29 -29 -29 -29 -29 -29 -29 -29 -30 -30 -30 -30 -30
-25 -25 -25 -25 -25 -25 -25 -25 -25 -25 -25 -25 -25 -25 -25 -25 -25 -25 -25 -25 -25 -25 -25 -26 -26 -26 -26 -26 -26 -26 -26 -26 -26 -26 -27 -27 -27 -27 -27 -27 -27 -27 -27 -27 -27 -28 -28 -28 -28 -29 -29 -29 -29 -29 -30 -30 -29 -30 -30 -30 -30 -30 -31
-25 -25 -25 -25 -25 -25 -25 -25 -25 -26 -26 -26 -26 -26 -26 -26 -26 -26 -26 -26 -26 -26 -26 -26 -26 -26 -26 -26 -26 -27 -27 -27 -27 -27 -27 -27 -27 -27 -27 -27 -27 -28 -28 -28 -28 -28 -28 -28 -29 -29 -29 -29 -29 -30 -30 -30 -30 -30 -30 -30 -30 -30 -31
-25 -25 -25 -25 -25 -26 -26 -26 -26 -26 -26 -26 -26 -26 -26 -26 -26 -26 -26 -26 -26 -26 -26 -26 -26 -26 -27 -27 -27 -27 -27 -27 -27 -27 -27 -27 -27 -27 -27 -27 -28 -28 -28 -28 -28 -28 -28 -28 -29 -29 -29 -29 -30 -30 -30 -30 -30 -30 -30 -30 -30 -30 -31
-25 -25 -26 -26 -26 -26 -26 -26 -26 -26 -26 -26 -26 -26 -26 -26 -26 -26 -26 -26 -26 -26 -26 -26 -27 -27 -27 -27 -27 -27 -27 -27 -27 -27 -27 -27 -27 -28 -28 -28 -28 -28 -28 -28 -28 -28 -28 -29 -29 -29 -29 -30 -30 -30 -30 -30 -30 -30 -30 -30 -30 -30 -31
-26 -26 -26 -26 -26 -26 -26 -26 -26 -26 -26 -26 -26 -26 -26 -26 -26 -26 -26 -26 -26 -26 -27 -27 -27 -27 -27 -28 -28 -28 -28 -28 -28 -28 -28 -28 -28 -28 -28 -28 -28 -29 -29 -29 -28 -28 -29 -29 -29 -30 -30 -30 -30 -30 -30 -30 -30 -30 -30 -30 -30 -31 -31
-26 -26 -26 -26 -26 -26 -26 -26 -26 -26 -26 -26 -26 -27 -27 -27 -27 -26 -26 -26 -27 -27 -27 -27 -27 -27 -28 -28 -28 -28 -28 -28 -28 -28 -28 -28 -28 -28 -28 -29 -29 -29 -29 -29 -29 -29 -29 -29 -30 -30 -30 -30 -30 -30 -31 -31 -31 -30 -30 -30 -31 -31 -31
-26 -26 -27 -27 -27 -27 -27 -27 -27 -27 -27 -27 -27 -27 -27 -27 -27 -27 -27 -27 -27 -27 -27 -27 -28 -28 -28 -28 -28 -28 -28 -28 -28 -28 -28 -28 -28 -28 -29 -29 -29 -29 -29 -29 -29 -29 -29 -30 -30 -30 -30 -31 -31 -31 -31 -31 -31 -31 -31 -31 -31 -31 -31
-26 -26 -27 -27 -27 -27 -27 -27 -27 -27 -27 -27 -27 -27 -27 -27 -27 -27 -27 -27 -27 -27 -28 -28 -28 -28 -28 -28 -29 -29 -29 -28 -28 -28 -28 -28 -28 -29 -29 -29 -29 -29 -29 -29 -29 -29 -29 -30 -30 -31 -31 -31 -31 -31 -31 -31 -31 -31 -31 -31 -31 -31 -32
-26 -27 -27 -27 -27 -27 -27 -27 -27 -27 -27 -27 -27 -27 -27 -27 -27 -27 -27 -28 -28 -28 -28 -28 -28 -28 -28 -28 -29 -29 -29 -29 -28 -28 -28 -29 -29 -29 -29 -29 -30 -30 -29 -29 -29 -29 -30 -30 -30 -31 -31 -31 -31 -31 -31 -31 -31 -31 -31 -31 -31 -32 -32
-27 -27 -27 -27 -27 -27 -27 -27 -27 -27 -27 -27 -27 -28 -28 -27 -27 -28 -28 -28 -28 -28 -28 -28 -28 -28 -28 -29 -29 -29 -29 -29 -29 -29 -29 -29 -29 -29 -29 -29 -30 -30 -30 -29 -29 -30 -30 -31 -31 -31 -31 -31 -31 -32 -32 -31 -31 -31 -32 -31 -32 -32 -32
-27 -27 -27 -27 -27 -27 -27 -27 -28 -28 -28 -28 -28 -28 -28 -28 -28 -28 -28 -28 -28 -28 -28 -28 -28 -29 -29 -29 -29 -29 -29 -29 -29 -29 -29 -29 -29 -29 -29 -30 -30 -30 -30 -30 -30 -30 -31 -31 -31 -31 -32 -32 -32 -32 -32 -32 -32 -32 -32 -32 -32 -32 -33
-27 -27 -27 -27 -27 -27 -27 -27 -28 -28 -28 -28 -28 -28 -28 -28 -28 -28 -28 -28 -28 -28 -28 -28 -29 -29 -29 -29 -29 -29 -29 -29 -29 -29 -29 -29 -29 -29 -30 -30 -30 -30 -30 -30 -30 -31 -31 -31 -32 -32 -32 -32 -32 -32 -32 -32 -32 -32 -32 -32 -32 -33 -33
-27 -27 -27 -28 -28 -28 -28 -28 -28 -28 -28 -28 -28 -28 -28 -28 -28 -28 -28 -28 -28 -28 -28 -28 -29 -29 -29 -29 -29 -29 -29 -29 -29 -29 -29 -29 -29 -30 -30 -30 -30 -30 -30 -30 -31 -31 -32 -32 -32 -32 -32 -33 -33 -33 -33 -33 -32 -32 -32 -32 -32 -33 -33
-28 -28 -28 -28 -28 -28 -28 -28 -28 -28 -28 -28 -28 -28 -28 -28 -28 -28 -28 -28 -28 -28 -28 -29 -29 -29 -29 -29 -29 -29 -29 -30 -30 -30 -30 -30 -30 -30 -30 -30 -30 -30 -30 -31 -31 -32 -32 -32 -33 -33 -33 -33 -33 -33 -33 -33 -33 -33 -33 -33 -33 -33 -33
-28 -28 -28 -28 -28 -28 -28 -28 -28 -28 -28 -28 -28 -28 -28 -28 -28 -28 -28 -28 -28 -28 -29 -29 -29 -29 -29 -29 -29 -29 -30 -30 -30 -30 -30 -30 -31 -31 -31 -31 -30 -31 -31 -31 -31 -32 -32 -33 -33 -33 -33 -33 -33 -34 -34 -34 -34 -34 -33 -33 -33 -33 -33
-29 -29 -28 -28 -28 -29 -29 -29 -28 -28 -29 -28 -28 -28 -28 -28 -28 -28 -28 -28 -28 -29 -29 -29 -29 -29 -30 -30 -30 -30 -30 -30 -30 -31 -31 -31 -31 -31 -31 -31 -31 -31 -31 -31 -32 -32 -32 -33 -33 -33 -33 -33 -34 -34 -34 -34 -34 -34 -34 -34 -34 -34 -34
-29 -29 -29 -29 -29 -29 -29 -29 -29 -29 -29 -29 -29 -29 -29 -29 -29 -29 -29 -29 -29 -29 -29 -29 -29 -30 -30 -30 -30 -30 -30 -31 -31 -31 -31 -31 -31 -31 -31 -31 -31 -31 -32 -32 -32 -32 -33 -33 -33 -33 -34 -34 -34 -34 -34 -34 -35 -34 -34 -34 -35 -35 -35
-30 -29 -29 -29 -29 -29 -29 -29 -29 -29 -29 -29 -29 -29 -29 -29 -29 -29 -29 -29 -29 -29 -29 -30 -30 -30 -30 -30 -30 -31 -31 -31 -31 -32 -32 -32 -32 -32 -32 -32 -32 -32 -32 -32 -32 -33 -33 -33 -33 -33 -34 -34 -34 -34 -34 -35 -35 -35 -35 -35 -35 -35 -35
-30 -30 -30 -30 -30 -30 -30 -30 -29 -29 -29 -29 -29 -29 -30 -30 -30 -29 -29 -29 -29 -30 -30 -30 -30 -30 -30 -31 -31 -31 -31 -32 -32 -32 -32 -32 -32 -32 -32 -32 -32 -32 -32 -33 -33 -33 -33 -33 -33 -34 -34 -34 -35 -35 -35 -35 -35 -35 -35 -35 -35 -35 -35
-30 -30 -30 -30 -30 -30 -30 -30 -30 -30 -30 -30 -30 -30 -30 -30 -30 -30 -30 -30 -30 -30 -30 -30 -30 -30 -31 -31 -31 -32 -32 -32 -32 -32 -32 -32 -32 -32 -32 -33 -33 -33 -33 -33 -33 -33 -33 -33 -34 -34 -34 -35 -35 -35 -35 -35 -35 -35 -35 -36 -36 -36 -36
-30 -30 -30 -30 -30 -30 -30 -30 -30 -30 -30 -30 -31 -31 -31 -31 -31 -31 -31 -31 -31 -31 -31 -31 -31 -31 -31 -32 -32 -32 -32 -32 -33 -33 -33 -33 -33 -33 -33 -33 -33 -33 -33 -33 -33 -33 -33 -34 -34 -34 -35 -35 -35 -35 -35 -35 -36 -36 -36 -36 -36 -36 -36
-31 -31 -31 -31 -31 -30 -30 -30 -30 -31 -31 -31 -31 -31 -31 -31 -31 -31 -31 -31 -31 -31 -31 -31 -31 -32 -32 -32 -33 -33 -33 -33 -33 -33 -33 -33 -33 -33 -33 -33 -33 -34 -34 -34 -34 -34 -34 -34 -34 -35 -35 -35 -35 -35 -36 -36 -36 -36 -36 -36 -36 -36 -37
-31 -31 -31 -31 -31 -31 -31 -31 -31 -31 -31 -31 -31 -32 -32 -32 -32 -32 -32 -32 -32 -32 -32 -32 -32 -32 -33 -33 -33 -33 -33 -33 -33 -33 -33 -33 -33 -34 -34 -34 -34 -34 -34 -34 -34 -34 -34 -35 -35 -35 -35 -35 -36 -36 -36 -36 -36 -36 -36 -37 -37 -37 -37
-32 -31 -31 -31 -31 -31 -31 -31 -31 -31 -31 -32 -32 -32 -32 -33 -33 -33 -33 -33 -32 -32 -32 -32 -33 -33 -33 -33 -33 -33 -33 -33 -33 -33 -34 -34 -34 -34 -34 -34 -34 -34 -34 -34 -34 -35 -35 -35 -35 -35 -36 -36 -36 -36 -36 -36 -37 -37 -37 -37 -37 -37 -38
-32 -32 -32 -32 -32 -32 -32 -32 -32 -32 -32 -32 -32 -33 -33 -33 -33 -33 -33 -33 -33 -33 -33 -33 -33 -33 -33 -33 -34 -34 -34 -34 -34 -34 -34 -34 -34 -34 -34 -34 -34 -35 -35 -35 -35 -35 -35 -35 -35 -36 -36 -36 -36 -36 -36 -37 -37 -37 -37 -37 -38 -38 -38
-33 -33 -32 -32 -32 -32 -32 -32 -32 -32 -32 -33 -33 -33 -33 -33 -33 -33 -33 -33 -33 -33 -33 -33 -34 -34 -34 -34 -34 -34 -34 -34 -34 -34 -34 -34 -34 -34 -35 -35 -35 -35 -35 -35 -35 -35 -36 -36 -36 -36 -36 -36 -36 -36 -37 -37 -37 -37 -37 -38 -38 -38 -39
-34 -33 -33 -33 -33 -33 -33 -33 -33 -33 -33 -33 -33 -33 -34 -34 -34 -34 -34 -34 -34 -34 -34 -34 -34 -34 -34 -34 -34 -34 -34 -34 -34 -35 -35 -35 -35 -35 -35 -35 -35 -35 -35 -36 -36 -36 -36 -36 -36 -36 -36 -36 -36 -37 -37 -37 -37 -37 -38 -38 -38 -39 -39
-34 -34 -34 -34 -33 -33 -33 -33 -33 -34 -34 -34 -34 -34 -34 -34 -34 -34 -35 -35 -35 -35 -35 -35 -35 -35 -35 -35 -35 -35 -35 -35 -35 -35 -35 -35 -35 -35 -35 -35 -36 -36 -36 -36 -36 -36 -36 -36 -36 -36 -36 -37 -37 -37 -37 -37 -37 -38 -38 -38 -39 -39 -39
-35 -35 -35 -34 -34 -34 -34 -34 -34 -34 -34 -34 -35 -35 -35 -35 -35 -35 -35 -35 -35 -35 -35 -35 -35 -35 -35 -35 -35 -35 -35 -35 -35 -35 -35 -35 -35 -36 -36 -36 -36 -36 -36 -37 -37 -37 -37 -37 -37 -37 -37 -37 -37 -37 -37 -37 -38 -38 -38 -39 -39 -39 -39
Height
5540 5538 5537 5535 5534 5532 5531 5529 5527 5525 5523 5522 5521 5519 5518 5516 5515 5513 5512 5510 5508 5506 5505 5503 5501 5500 5499 5497 5496 5495 5494 5492 5491 5490 5488 5487 5485 5483 5482 5480 5479 5479 5478 5471 5466 5464 5462 5460 5461 5458 5456 5456 5455 5452 5452 5452 5450 5449 5447 5446 5445 5442 5439
5531 5529 5528 5526 5525 5523 5522 5520 5518 5516 5514 5513 5512 5511 5510 5508 5506 5505 5504 5502 5500 5498 5497 5495 5493 5491 5491 5490 5488 5487 5486 5485 5483 5482 5481 5479 5478 5476 5474 5473 5471 5471 5471 5466 5460 5456 5454 5452 5452 5450 5448 5448 5447 5444 5443 5443 5442 5440 5439 5437 5436 5434 5432
5521 5520 5518 5517 5516 5514 5512 5510 5509 5507 5506 5504 5503 5502 5501 5500 5498 5497 5495 5494 5492 5491 5489 5487 5485 5483 5483 5482 5481 5479 5478 5477 5475 5474 5473 5471 5470 5468 5467 5465 5464 5462 5462 5461 5455 5449 5446 5444 5443 5441 5439 5439 5438 5436 5434 5434 5433 5431 5430 5429 5427 5426 5423
5512 5510 5509 5508 5506 5505 5503 5501 5500 5498 5497 5496 5495 5494 5493 5491 5490 5488 5487 5485 5484 5483 5481 5479 5477 5475 5474 5474 5472 5471 5469 5468 5467 5466 5465 5463 5461 5460 5459 5457 5456 5454 5453 5453 5450 5444 5439 5436 5435 5432 5430 5430 5429 5427 5426 5425 5424 5423 5421 5419 5418 5417 5415
5502 5501 5500 5498 5497 5496 5494 5492 5491 5490 5489 5488 5486 5485 5484 5483 5481 5480 5478 5477 5475 5474 5472 5470 5469 5466 5465 5465 5463 5462 5461 5459 5458 5458 5456 5455 5453 5452 5450 5448 5447 5446 5444 5443 5442 5438 5433 5429 5427 5425 5422 5421 5421 5419 5417 5417 5416 5415 5413 5410 5408 5407 5406
5493 5492 5490 5489 5488 5487 5485 5484 5483 5482 5480 5479 5478 5476 5475 5474 5473 5471 5470 5468 5467 5465 5464 5462 5460 5458 5457 5456 5454 5453 5452 5451 5450 5449 5447 5446 5444 5443 5442 5440 5438 5437 5436 5434 5433 5431 5427 5422 5420 5418 5415 5413 5412 5411 5409 5408 5408 5407 5405 5402 5399 5397 5395
5484 5483 5481 5480 5479 5478 5477 5475 5474 5473 5472 5470 5469 5467 5466 5465 5464 5463 5461 5460 5458 5456 5455 5453 5451 5450 5448 5447 5445 5444 5443 5442 5441 5440 5438 5437 5436 5434 5433 5431 5429 5428 5427 5425 5424 5422 5419 5416 5413 5410 5407 5405 5403 5403 5402 5400 5400 5399 5397 5394 5392 5388 5384
5475 5474 5472 5471 5470 5469 5468 5466 5465 5464 5462 5461 5459 5458 5457 5456 5455 5454 5452 5451 5449 5448 5446 5444 5442 5441 5439 5437 5436 5435 5434 5433 5432 5431 5430 5428 5426 5425 5424 5422 5420 5419 5417 5416 5415 5413 5411 5409 5406 5402 5399 5397 5395 5394 5393 5392 5392 5392 5389 5386 5384 5380 5375
5466 5465 5463 5462 5460 5459 5458 5457 5456 5454 5453 5451 5450 5449 5448 5447 5446 5445 5443 5442 5440 5439 5437 5435 5433 5431 5430 5428 5427 5425 5425 5424 5423 5422 5420 5419 5417 5416 5415 5413 5411 5410 5408 5406 5406 5404 5401 5400 5398 5394 5391 5390 5387 5386 5385 5384 5383 5384 5382 5379 5377 5373 5366
5457 5456 5454 5452 5451 5449 5448 5447 5446 5444 5443 5441 5441 5440 5439 5438 5437 5435 5434 5433 5431 5429 5428 5425 5424 5422 5420 5419 5417 5416 5415 5415 5414 5413 5411 5410 5409 5407 5406 5405 5402 5400 5399 5397 5396 5395 5393 5391 5389 5385 5383 5382 5379 5377 5377 5376 5374 5374 5373 5371 5370 5367 5360
5448 5447 5445 5443 5442 5440 5439 5438 5436 5434 5432 5432 5431 5430 5430 5429 5427 5426 5425 5424 5422 5420 5418 5416 5415 5413 5411 5410 5408 5407 5406 5406 5405 5404 5402 5401 5400 5398 5397 5395 5393 5391 5389 5388 5387 5386 5384 5382 5379 5377 5375 5373 5371 5369 5368 5367 5366 5366 5364 5362 5362 5360 5354
5439 5437 5435 5434 5432 5431 5430 5428 5426 5424 5423 5422 5422 5421 5420 5419 5418 5417 5415 5414 5412 5410 5409 5407 5405 5404 5402 5401 5399 5398 5397 5397 5396 5395 5394 5392 5391 5390 5388 5386 5384 5382 5380 5379 5378 5377 5375 5372 5370 5368 5367 5364 5362 5361 5360 5358 5357 5356 5355 5354 5353 5351 5347
5429 5427 5426 5424 5423 5421 5420 5419 5416 5414 5413 5413 5412 5411 5411 5410 5408 5407 5406 5404 5403 5401 5399 5397 5396 5395 5393 5391 5390 5389 5389 5387 5386 5386 5385 5384 5382 5381 5379 5377 5375 5373 5371 5370 5369 5368 5366 5362 5360 5360 5358 5355 5353 5352 5350 5350 5349 5348 5347 5346 5344 5342 5339
5419 5418 5416 5414 5413 5412 5411 5409 5407 5404 5404 5403 5402 5401 5401 5400 5398 5397 5396 5395 5393 5391 5389 5387 5386 5386 5384 5382 5381 5380 5379 5378 5377 5377 5376 5375 5373 5372 5370 5368 5366 5363 5361 5361 5361 5360 5358 5354 5351 5351 5349 5346 5345 5343 5341 5340 5340 5339 5338 5336 5335 5333 5330
5409 5408 5406 5404 5403 5402 5401 5399 5397 5394 5394 5393 5392 5391 5391 5391 5389 5387 5387 5385 5383 5381 5379 5378 5377 5376 5375 5373 5372 5370 5369 5369 5369 5368 5367 5366 5364 5363 5361 5359 5356 5353 5353 5353 5352 5350 5349 5346 5343 5342 5340 5337 5336 5334 5332 5331 5331 5330 5328 5327 5326 5324 5321
5400 5398 5396 5394 5393 5392 5391 5389 5386 5385 5384 5383 5382 5380 5380 5381 5380 5378 5376 5375 5374 5372 5370 5369 5368 5366 5365 5365 5363 5361 5360 5359 5359 5359 5358 5357 5355 5354 5352 5350 5347 5344 5344 5344 5342 5341 5340 5338 5335 5332 5330 5328 5326 5324 5323 5322 5322 5321 5319 5318 5318 5316 5313
5390 5388 5386 5385 5383 5382 5381 5379 5376 5375 5373 5372 5371 5370 5370 5371 5371 5369 5367 5365 5364 5363 5362 5360 5358 5357 5356 5356 5354 5352 5351 5351 5350 5349 5348 5347 5346 5344 5344 5341 5337 5335 5335 5334 5333 5332 5330 5328 5326 5323 5321 5319 5316 5314 5313 5313 5314 5312 5310 5309 5309 5307 5304
5379 5378 5377 5375 5374 5372 5371 5369 5366 5365 5363 5362 5361 5360 5360 5360 5361 5361 5359 5356 5354 5353 5352 5351 5349 5347 5347 5346 5344 5342 5341 5342 5341 5341 5339 5338 5336 5336 5334 5331 5328 5327 5326 5324 5323 5322 5321 5319 5316 5314 5311 5309 5306 5304 5302 5303 5304 5303 5302 5301 5300 5298 5296
5369 5368 5367 5366 5364 5362 5361 5359 5357 5355 5354 5352 5351 5350 5351 5351 5351 5351 5350 5348 5346 5344 5343 5341 5339 5337 5337 5336 5334 5332 5331 5331 5331 5331 5330 5328 5327 5327 5325 5321 5319 5319 5318 5315 5313 5312 5310 5308 5306 5304 5302 5299 5296 5294 5292 5292 5294 5294 5293 5293 5292 5289 5287
5359 5358 5357 5355 5354 5352 5351 5349 5347 5345 5344 5342 5341 5341 5341 5342 5342 5342 5340 5338 5337 5336 5334 5331 5329 5327 5326 5325 5325 5323 5321 5320 5320 5320 5320 5319 5318 5317 5315 5312 5311 5311 5309 5307 5305 5302 5300 5298 5296 5293 5292 5289 5286 5284 5281 5280 5282 5283 5283 5283 5282 5280 5278
5347 5347 5346 5345 5343 5342 5341 5339 5337 5336 5334 5332 5331 5331 5331 5332 5333 5332 5330 5329 5328 5327 5325 5322 5319 5317 5315 5314 5315 5314 5312 5310 5308 5308 5309 5309 5307 5306 5304 5303 5303 5302 5300 5298 5296 5294 5291 5289 5286 5283 5281 5279 5276 5274 5271 5270 5270 5271 5271 5271 5271 5270 5268
5336 5335 5335 5334 5333 5331 5330 5328 5326 5325 5324 5322 5321 5320 5321 5322 5323 5321 5320 5319 5319 5317 5315 5312 5310 5308 5306 5304 5304 5304 5303 5300 5298 5297 5298 5298 5297 5295 5294 5293 5293 5292 5291 5289 5288 5286 5283 5280 5277 5274 5271 5269 5267 5264 5262 5260 5258 5258 5259 5259 5259 5258 5257
5324 5323 5322 5322 5321 5320 5318 5316 5315 5314 5313 5311 5310 5310 5310 5311 5312 5311 5309 5309 5309 5307 5305 5302 5300 5298 5296 5295 5294 5294 5292 5290 5288 5287 5287 5286 5286 5285 5284 5284 5284 5283 5282 5280 5279 5277 5275 5272 5269 5266 5263 5260 5258 5256 5253 5251 5248 5247 5247 5247 5246 5246 5246
5312 5311 5310 5310 5309 5308 5306 5304 5303 5302 5301 5300 5299 5299 5299 5300 5301 5300 5299 5299 5299 5297 5294 5292 5290 5288 5287 5285 5284 5283 5281 5280 5279 5277 5277 5276 5275 5275 5274 5274 5274 5273 5272 5271 5270 5268 5266 5264 5261 5257 5254 5252 5250 5248 5245 5243 5240 5239 5238 5237 5236 5235 5234
5299 5298 5298 5297 5296 5295 5293 5291 5291 5290 5289 5288 5287 5288 5288 5288 5288 5288 5288 5288 5288 5286 5283 5281 5280 5279 5277 5275 5274 5272 5271 5270 5269 5267 5267 5266 5265 5264 5264 5264 5264 5263 5262 5262 5260 5258 5257 5255 5252 5249 5246 5243 5241 5239 5237 5234 5233 5231 5229 5228 5226 5225 5224
5285 5285 5285 5284 5284 5282 5280 5279 5278 5278 5277 5276 5276 5277 5276 5275 5276 5276 5276 5277 5277 5275 5273 5271 5270 5269 5267 5265 5263 5262 5261 5260 5259 5257 5257 5256 5255 5254 5254 5254 5254 5253 5253 5252 5250 5249 5247 5245 5243 5240 5238 5235 5232 5230 5227 5225 5224 5223 5222 5220 5218 5216 5215
5272 5271 5272 5271 5270 5268 5267 5267 5267 5266 5265 5265 5265 5265 5264 5264 5264 5264 5264 5265 5265 5264 5262 5262 5261 5259 5257 5255 5253 5252 5251 5250 5249 5248 5247 5246 5245 5244 5244 5244 5243 5243 5243 5242 5240 5239 5238 5236 5234 5231 5229 5226 5223 5221 5218 5215 5214 5214 5213 5211 5209 5208 5207
5259 5259 5258 5258 5256 5255 5255 5255 5256 5255 5253 5253 5253 5253 5253 5253 5253 5252 5252 5252 5252 5252 5252 5251 5250 5248 5246 5244 5243 5242 5241 5240 5239 5238 5237 5236 5235 5234 5234 5234 5233 5233 5232 5231 5230 5229 5228 5227 5224 5222 5220 5217 5214 5212 5209 5206 5205 5204 5203 5202 5201 5199 5198
5245 5246 5245 5244 5243 5243 5243 5244 5243 5241 5240 5240 5241 5241 5241 5241 5240 5240 5240 5240 5240 5240 5241 5241 5240 5238 5236 5234 5233 5232 5231 5230 5229 5229 5228 5227 5225 5225 5225 5224 5223 5223 5222 5221 5220 5220 5219 5217 5215 5213 5211 5208 5206 5203 5201 5198 5196 5195 5194 5193 5192 5191 5189
5231 5232 5231 5231 5231 5231 5231 5231 5230 5228 5228 5229 5229 5229 5229 5229 5229 5229 5229 5228 5228 5229 5231 5231 5230 5228 5226 5224 5223 5222 5221 5220 5220 5219 5218 5217 5216 5215 5215 5214 5213 5212 5212 5211 5211 5210 5209 5207 5206 5204 5202 5200 5198 5195 5192 5190 5188 5186 5185 5184 5183 5182 5180
5218 5218 5218 5218 5219 5218 5218 5218 5217 5216 5217 5218 5217 5217 5217 5217 5217 5218 5218 5217 5217 5219 5221 5220 5219 5218 5216 5214 5213 5213 5212 5211 5210 5210 5209 5208 5207 5206 5205 5204 5203 5202 5201 5202 5201 5200 5199 5198 5197 5195 5193 5192 5189 5187 5184 5181 5179 5177 5175 5174 5174 5173 5172
5205 5205 5205 5206 5206 5206 5205 5205 5204 5204 5205 5206 5206 5206 5206 5206 5207 5207 5206 5206 5206 5208 5210 5209 5208 5207 5206 5204 5203 5203 5203 5202 5201 5200 5199 5198 5198 5197 5195 5194 5193 5192 5192 5192 5192 5190 5189 5189 5187 5186 5185 5183 5181 5178 5176 5173 5171 5169 5167 5166 5165 5164 5164
5192 5192 5192 5193 5194 5194 5193 5193 5193 5193 5193 5194 5194 5195 5195 5196 5196 5196 5196 5195 5196 5197 5198 5198 5197 5197 5196 5194 5194 5193 5193 5192 5191 5191 5190 5189 5188 5187 5186 5184 5183 5183 5182 5182 5182 5181 5180 5179 5178 5177 5176 5174 5172 5170 5168 5166 5163 5160 5158 5157 5156 5156 5155
5179 5179 5180 5181 5181 5182 5182 5182 5182 5182 5182 5182 5183 5184 5184 5185 5186 5186 5185 5184 5185 5187 5187 5187 5187 5187 5186 5185 5184 5184 5183 5183 5182 5181 5180 5179 5179 5178 5177 5175 5174 5174 5173 5172 5172 5171 5171 5170 5168 5167 5166 5165 5163 5162 5160 5157 5155 5152 5150 5149 5148 5148 5147
5167 5168 5169 5169 5170 5170 5170 5171 5171 5171 5171 5171 5172 5173 5174 5175 5176 5176 5175 5174 5175 5176 5177 5177 5177 5177 5176 5175 5175 5174 5174 5173 5172 5171 5170 5170 5169 5169 5168 5166 5165 5165 5164 5163 5162 5162 5161 5160 5159 5158 5157 5156 5154 5153 5151 5149 5146 5144 5142 5141 5140 5139 5139
5156 5157 5158 5158 5158 5158 5159 5160 5161 5161 5161 5161 5161 5162 5163 5165 5166 5166 5165 5165 5165 5166 5166 5167 5167 5167 5166 5166 5165 5165 5164 5164 5163 5162 5161 5161 5160 5159 5159 5158 5156 5155 5155 5154 5153 5153 5152 5151 5150 5149 5147 5146 5145 5144 5142 5139 5137 5135 5134 5133 5132 5131 5131
Wind_Speed
65 65 65 65 65 65 65 65 65 65 65 64 63 62 61 60 58 57 56 55 55 55 55 55 55 56 56 56 56 56 56 56 56 56 56 56 57 57 57 57 57 57 57 58 59 60 60 60 59 59 59 59 59 60 59 59 60 60 61 61 61 61 62
65 65 65 65 65 65 65 65 66 66 66 65 64 62 61 60 58 57 56 55 55 55 55 55 55 56 56 56 56 56 56 56 56 57 57 57 57 57 58 58 58 58 58 58 60 60 60 61 60 60 60 60 59 60 60 60 60 61 61 61 61 61 62
64 64 64 64 65 65 66 66 66 66 66 65 64 62 60 60 58 57 56 55 55 55 55 55 56 57 57 57 57 57 57 57 58 58 58 58 58 58 58 59 59 59 59 58 59 60 61 61 61 60 60 60 60 60 61 61 61 61 61 61 61 61 62
64 64 64 64 65 65 66 67 67 67 66 65 63 62 60 59 59 58 57 56 56 56 56 56 57 58 58 58 58 58 58 59 59 59 59 59 59 59 59 60 60 59 59 59 59 60 61 61 61 61 61 60 60 60 61 61 60 60 60 61 61 62 62
64 63 63 64 65 66 66 67 67 66 65 64 63 62 60 59 59 58 57 57 57 57 57 57 58 58 59 59 59 59 60 60 60 60 60 60 60 60 60 60 60 60 59 59 59 59 60 61 60 60 60 60 60 60 61 61 60 60 60 61 62 62 63
63 63 63 64 65 66 66 66 66 65 65 64 63 62 61 60 59 59 58 57 57 58 58 58 59 59 60 60 60 61 61 61 61 60 60 60 60 61 61 60 60 59 59 59 59 59 60 60 60 60 60 61 60 61 61 61 60 59 60 61 61 63 63
62 62 63 64 65 65 65 65 65 65 64 64 63 62 61 60 60 59 58 58 58 59 59 59 60 61 61 62 62 62 62 62 61 61 60 60 60 60 60 60 60 59 59 59 59 59 60 60 60 60 60 61 61 61 61 61 60 59 60 61 61 62 64
62 62 63 64 64 65 65 65 65 65 64 63 63 62 61 61 60 60 59 59 59 60 60 61 62 63 63 63 63 63 62 61 61 60 60 60 60 60 60 60 60 59 59 59 59 60 60 60 59 60 60 61 62 62 61 61 60 59 60 61 61 62 63
63 63 63 64 64 64 64 65 65 64 64 63 63 62 62 61 61 61 60 60 61 61 62 63 64 64 64 64 63 62 62 61 60 60 60 60 60 60 59 59 60 59 59 60 60 60 60 60 59 60 61 61 62 62 61 62 61 60 60 61 61 62 63
63 63 63 64 64 64 64 64 64 64 63 63 63 63 62 62 62 61 61 61 62 63 64 65 65 65 64 63 62 62 61 60 60 59 59 59 60 60 60 59 59 59 59 59 59 59 60 59 59 60 61 61 62 62 62 62 61 61 61 62 61 61 62
64 63 63 63 64 64 64 64 64 64 64 64 64 63 63 62 62 63 63 63 64 65 65 65 65 64 63 62 61 61 60 60 59 59 59 59 59 59 60 59 59 59 59 59 59 59 59 59 59 60 61 61 61 62 62 62 62 61 62 62 62 61 62
64 63 63 64 64 64 64 64 64 65 65 65 64 64 64 64 64 65 65 66 66 66 66 65 64 63 61 61 60 60 60 59 59 59 59 59 59 59 59 59 59 59 59 59 59 59 59 60 60 60 61 61 62 62 62 62 62 62 62 62 62 62 61
63 64 64 64 65 65 65 65 66 66 66 66 65 65 65 66 66 67 67 67 66 66 65 64 62 61 60 59 60 59 59 59 59 59 58 58 59 59 59 59 59 59 59 59 59 59 59 60 61 61 61 62 62 62 63 62 62 63 62 62 62 62 62
64 64 65 65 65 66 66 66 67 68 68 67 67 67 67 67 67 67 66 66 65 64 63 62 61 60 59 59 60 60 60 59 59 59 58 58 59 59 59 59 59 60 60 60 59 59 60 61 62 61 61 62 62 63 63 63 63 63 63 63 63 62 62
63 64 64 65 65 65 66 67 68 68 68 68 68 68 67 67 66 66 64 63 63 62 61 61 60 59 59 59 60 61 61 60 60 59 59 59 59 59 59 59 60 61 60 60 60 60 61 61 62 62 62 63 63 63 64 64 63 63 63 63 63 62 62
63 63 64 64 65 65 65 66 67 68 67 67 67 67 66 64 63 63 62 61 61 60 60 60 60 60 60 60 61 61 61 61 61 60 60 60 60 60 60 60 61 62 61 61 61 61 62 62 62 63 63 64 64 64 64 64 63 63 64 63 62 61 61
64 63 64 64 64 64 64 65 66 66 66 66 65 65 64 62 60 60 59 59 60 59 59 60 60 61 61 60 61 62 62 62 62 61 61 61 61 61 61 61 62 62 62 62 62 62 62 62 63 63 64 64 64 65 64 64 63 63 63 63 62 61 61
65 64 64 63 63 63 64 64 65 65 65 64 64 62 61 60 59 58 57 58 59 59 59 60 60 61 61 61 62 63 63 63 62 62 62 62 62 62 62 62 63 63 63 64 64 63 63 63 63 63 64 64 64 65 65 65 64 63 62 61 60 60 60
66 65 64 63 63 63 63 64 64 64 63 63 62 62 60 59 58 57 57 58 58 59 60 60 61 62 62 62 63 64 64 64 64 63 63 64 64 63 63 64 64 64 64 64 64 64 64 63 63 64 64 64 65 65 66 66 64 63 62 61 60 60 60
68 67 65 64 64 63 63 64 64 63 63 63 63 62 61 60 58 58 58 58 59 59 60 61 62 63 63 64 64 64 65 65 65 65 65 65 65 64 64 65 65 65 64 64 64 64 63 63 63 63 64 64 65 65 66 66 65 63 62 61 60 60 61
70 69 67 66 65 64 64 64 64 64 64 64 64 64 63 61 60 60 60 60 60 61 62 63 64 65 65 66 65 65 66 67 67 67 66 66 65 65 65 65 65 65 65 64 64 63 63 63 63 63 64 64 65 65 66 66 65 64 63 62 61 61 61
71 71 70 69 68 67 66 66 66 66 66 67 66 66 65 63 62 62 62 62 61 62 63 64 66 66 67 67 67 67 67 68 68 68 67 66 66 66 66 66 65 65 64 64 63 63 63 63 63 63 64 64 65 65 65 65 65 65 64 63 63 62 61
73 72 72 71 71 70 70 70 69 69 69 69 69 68 67 65 64 63 64 63 63 64 65 66 67 68 68 69 69 69 69 69 69 68 68 67 66 66 66 66 65 64 64 63 63 62 62 62 62 63 64 65 64 64 64 64 65 65 64 64 64 63 62
74 73 73 72 72 72 72 72 72 71 71 71 71 70 69 67 66 65 66 65 65 66 66 67 68 69 69 70 70 70 70 70 69 69 68 68 67 67 66 65 64 64 63 63 62 62 62 62 62 63 64 64 63 63 63 63 64 65 65 64 64 63 62
76 75 74 72 72 72 72 73 73 73 73 73 72 72 70 69 68 67 67 67 66 67 68 68 69 69 70 70 71 70 70 70 69 69 68 68 68 67 66 65 64 63 63 62 62 62 61 61 62 62 63 63 63 63 63 63 64 64 64 64 63 63 62
79 77 75 74 73 73 73 73 73 74 74 74 73 72 70 69 69 68 68 67 67 67 68 69 69 70 70 71 71 70 70 69 68 68 68 67 67 66 66 65 64 63 63 62 61 61 61 61 62 62 62 62 62 62 63 64 64 63 63 63 62 62 61
82 80 79 77 75 75 75 74 73 74 74 74 73 71 70 69 68 68 68 67 67 68 68 69 69 70 70 70 70 70 69 68 68 67 67 67 66 66 65 64 64 63 62 62 62 62 61 61 61 61 61 61 61 62 63 64 64 63 62 62 61 60 59
84 83 82 80 79 78 76 75 73 73 73 72 71 70 69 68 68 68 68 68 68 68 69 69 69 70 70 70 69 69 68 68 67 67 66 66 66 66 65 64 63 63 62 62 62 62 61 60 60 60 60 60 61 62 63 63 63 62 62 61 60 58 56
85 84 84 83 81 78 77 75 73 73 72 72 71 70 69 68 68 68 68 68 68 69 69 69 69 69 69 68 68 68 67 67 66 66 66 66 66 65 64 64 63 63 62 62 62 61 60 60 60 59 59 60 61 61 62 63 62 62 61 60 58 56 55
84 84 83 81 79 77 75 74 73 73 72 71 70 69 68 68 68 68 67 68 69 69 68 68 68 68 68 67 67 67 66 66 66 66 65 65 65 64 64 63 63 63 62 62 61 61 60 59 59 59 59 59 60 61 62 62 62 61 60 58 57 55 54
77 78 77 75 74 73 72 72 71 71 71 70 69 68 67 67 67 67 67 68 68 68 68 67 67 67 67 67 67 66 66 65 65 65 64 64 64 64 63 63 63 63 62 61 60 60 59 59 59 58 58 59 60 60 61 61 61 60 59 57 55 54 53
72 71 71 70 69 68 68 68 68 68 68 68 68 67 67 66 66 66 67 68 68 67 67 66 66 66 66 66 66 65 65 65 64 64 63 63 63 63 62 62 62 62 62 61 60 59 59 59 58 58 58 59 60 60 61 61 60 59 58 56 55 53 52
69 68 67 67 66 65 65 65 65 66 66 66 66 66 66 66 66 66 67 67 67 66 66 65 65 65 65 65 65 64 64 63 63 63 63 62 62 62 62 62 62 62 61 60 59 59 59 59 59 59 59 59 59 60 60 60 59 58 57 55 54 52 52
67 67 65 65 64 64 63 63 63 64 64 64 64 64 64 64 65 65 66 66 66 65 65 64 64 64 63 63 63 63 62 62 62 61 61 61 61 61 61 61 61 60 60 59 59 59 59 59 59 59 58 59 59 59 59 59 58 58 56 54 53 52 52
65 64 64 63 62 62 62 61 61 62 62 63 63 63 64 64 64 64 65 65 65 64 64 63 62 62 62 62 61 61 61 60 60 60 60 60 60 60 60 60 59 59 59 59 58 58 58 58 58 58 58 59 59 59 58 58 58 57 55 53 52 52 52
61 61 61 60 60 60 60 60 60 60 61 61 62 63 63 63 63 63 63 64 63 63 62 61 61 60 60 60 60 59 59 59 59 59 59 59 59 58 58 58 58 57 57 58 58 58 58 58 58 58 59 59 58 58 57 57 57 55 53 52 52 52 53
Wind_Direction
279 278 278 278 278 278 277 277 277 276 276 277 277 277 277 278 278 278 278 278 279 279 280 281 281 281 281 282 283 283 284 284 284 284 283 284 284 284 285 285 285 285 285 284 284 284 284 284 284 284 284 284 284 284 283 283 283 283 283 284 284 284 285
279 278 278 277 277 277 277 276 276 276 276 277 277 278 278 278 277 277 277 277 278 279 280 280 281 281 281 282 282 282 283 283 283 283 283 283 284 284 284 284 284 284 284 283 284 284 284 284 285 285 284 284 284 284 284 284 284 284 284 284 284 285 285
279 278 277 277 277 277 276 276 276 276 276 277 277 277 277 277 276 276 276 276 277 278 279 279 280 280 281 281 281 282 282 282 283 283 283 283 283 283 283 283 283 283 283 283 283 284 284 285 285 285 285 285 285 284 284 284 285 285 285 285 285 286 286
278 278 277 277 276 276 276 276 275 276 276 277 277 277 276 276 275 275 275 276 277 278 279 279 280 280 281 281 282 282 282 282 282 283 283 283 283 283 283 283 283 283 283 283 283 283 284 284 285 285 285 285 285 285 285 285 285 286 286 286 286 286 287
278 277 277 276 276 276 276 276 276 276 276 277 277 276 275 275 274 275 276 277 278 278 279 280 280 281 281 282 282 282 282 282 282 282 282 282 282 282 282 283 283 283 283 284 283 283 284 284 284 285 285 285 285 285 285 285 286 286 286 287 287 287 288
277 277 276 276 275 276 276 276 276 276 276 276 276 275 274 274 274 275 276 277 278 279 279 280 280 281 281 282 282 282 282 282 282 282 282 282 282 282 282 283 283 283 284 284 284 284 283 284 284 285 285 285 285 285 285 285 286 286 286 287 288 288 288
276 276 276 276 276 276 276 276 276 276 275 275 275 274 274 274 274 276 276 277 278 278 279 279 280 281 282 282 282 282 282 282 282 282 281 281 282 282 283 283 284 284 284 284 284 284 284 284 285 285 284 285 285 285 285 285 286 286 286 287 287 288 288
276 276 276 276 276 276 276 275 275 275 275 274 274 274 274 275 276 276 277 277 278 278 279 280 281 282 282 282 281 281 282 282 282 282 282 282 282 283 284 284 284 284 284 284 285 285 284 285 285 284 284 285 285 285 285 285 285 286 286 287 287 288 288
277 277 276 276 276 275 275 275 275 275 274 274 274 274 275 275 276 276 277 278 278 279 280 281 281 282 281 281 281 281 281 281 281 282 282 282 283 284 284 284 284 285 285 285 285 285 285 285 285 284 284 285 285 285 285 285 285 286 286 286 287 288 289
278 277 276 275 275 275 275 275 275 274 274 274 274 274 275 275 276 276 277 278 279 280 281 281 281 281 281 281 281 281 281 281 281 282 282 283 283 284 284 285 285 285 285 286 286 286 286 286 285 285 285 285 285 285 285 285 286 286 286 286 288 288 288
279 278 277 276 276 275 275 275 274 274 273 273 274 274 275 275 276 277 277 278 279 280 280 280 280 280 279 279 279 280 280 281 281 282 282 283 284 284 284 285 285 285 286 286 286 287 287 287 286 285 285 285 285 285 285 285 286 286 287 288 289 288 288
280 279 278 277 276 276 275 274 274 274 274 274 274 274 275 276 276 277 278 279 280 280 279 279 278 278 278 278 278 279 280 280 281 281 282 283 283 284 284 285 285 285 286 286 287 287 287 287 286 286 286 285 285 286 286 286 286 287 287 288 288 288 287
280 279 278 277 277 276 276 275 275 275 275 275 275 276 276 277 278 278 279 279 279 279 278 278 277 277 278 278 278 278 279 279 280 281 281 282 282 283 283 284 285 285 285 285 286 287 287 286 285 286 286 285 285 286 286 286 287 287 288 288 288 288 288
279 279 278 278 277 277 276 276 276 276 276 276 277 277 277 278 278 278 278 278 277 277 277 277 277 277 277 277 278 278 278 279 279 280 281 281 281 282 283 283 284 284 284 285 286 286 286 285 285 285 285 285 285 286 286 286 287 288 289 289 289 289 289
279 279 278 278 277 277 277 277 277 277 277 277 277 277 277 277 277 277 277 276 276 276 276 276 277 277 277 277 277 278 278 278 279 279 280 280 281 281 282 283 283 282 283 284 285 285 285 284 285 285 285 285 285 286 286 287 288 289 289 289 289 289 289
280 279 278 278 278 278 278 277 277 277 277 277 277 277 277 277 277 277 276 276 275 276 276 276 276 276 276 276 277 277 277 278 278 279 280 280 280 281 281 282 281 281 283 284 284 284 284 284 285 285 285 285 286 286 286 287 288 288 288 289 289 289 288
279 279 278 278 278 278 278 277 277 277 277 277 277 277 277 277 276 276 276 276 276 276 276 276 275 275 276 276 276 276 277 278 279 279 280 280 280 281 281 281 280 281 283 283 284 284 284 284 285 285 285 286 286 286 286 287 288 288 288 289 289 288 287
278 278 278 278 278 277 277 277 277 277 277 277 277 276 276 276 276 275 275 275 275 275 275 275 275 275 276 276 276 276 277 278 279 279 280 280 280 281 281 280 280 281 283 284 284 284 284 284 285 285 285 285 285 285 286 286 287 287 288 288 288 287 286
276 276 277 277 276 276 276 276 276 276 276 276 275 275 275 275 275 276 275 275 275 275 275 275 275 275 276 276 276 277 278 279 279 279 279 279 280 280 280 279 280 282 283 283 284 284 284 284 284 284 285 285 285 285 285 286 287 287 287 287 286 286 285
274 275 275 275 275 275 275 275 275 275 275 274 275 275 275 275 276 275 275 275 275 275 275 276 276 275 275 276 276 277 278 278 279 279 279 279 280 280 279 279 281 282 282 283 283 284 284 284 284 284 284 285 285 285 285 286 287 287 286 286 286 285 285
273 273 273 273 273 273 273 273 273 273 273 273 274 274 274 275 275 275 274 274 275 275 275 275 275 275 275 276 276 277 277 278 278 279 279 279 279 279 279 280 281 281 282 282 282 283 283 284 284 284 284 284 284 285 285 286 286 287 286 286 286 286 285
273 273 272 272 272 271 271 272 272 272 272 272 272 272 273 273 274 274 273 274 274 274 274 274 274 275 275 276 276 277 277 277 278 278 278 279 278 279 279 280 280 281 281 281 281 282 283 283 283 283 283 283 284 284 285 286 286 287 287 288 287 287 286
274 273 273 272 271 271 271 271 271 271 271 271 271 272 272 272 272 272 273 273 273 273 273 273 274 274 275 275 276 277 277 277 277 277 278 278 278 278 279 279 280 280 280 280 281 281 281 281 281 282 282 282 283 283 284 285 286 287 288 288 288 288 287
274 274 273 272 271 271 270 270 270 270 270 270 270 271 271 272 271 271 272 272 272 273 273 273 273 274 274 275 276 276 276 276 277 277 277 278 278 278 278 279 279 279 279 280 280 280 280 280 280 281 281 281 282 282 283 284 285 286 287 288 288 289 289
276 275 274 273 272 271 270 269 268 268 268 268 269 270 270 270 270 270 270 271 271 271 271 272 272 273 274 275 275 275 276 276 276 277 277 277 278 278 278 278 278 279 279 280 280 280 280 280 280 280 280 281 281 282 282 283 284 285 287 288 288 289 289
276 276 275 274 273 272 271 270 269 268 267 267 268 268 269 269 269 269 270 270 269 269 270 270 272 273 273 274 274 275 275 275 276 276 277 277 277 278 278 278 279 279 279 280 280 280 280 280 280 280 280 280 281 281 282 283 284 285 286 287 288 288 289
275 275 275 275 275 274 272 270 269 269 268 268 268 268 268 269 270 270 269 269 268 269 269 270 271 272 273 273 274 274 275 275 276 276 276 277 277 277 278 278 279 279 280 280 279 279 280 280 280 280 280 280 280 281 282 283 285 286 287 287 287 288 288
273 274 274 275 275 274 272 271 270 269 268 267 267 267 268 268 268 268 268 268 268 268 269 270 271 272 272 273 274 274 275 275 276 276 276 277 277 277 278 278 279 279 279 279 279 279 279 279 279 279 279 279 280 281 283 284 286 286 287 287 287 287 286
272 273 273 274 274 273 272 271 269 267 266 266 266 266 266 267 267 267 267 268 268 268 269 269 270 272 273 273 274 274 275 275 275 276 276 277 277 277 278 278 278 278 278 278 279 279 279 279 279 279 279 279 280 282 283 284 286 286 286 286 286 286 284
272 272 273 273 272 271 270 269 268 267 266 265 265 265 265 265 266 266 267 267 267 268 269 270 271 272 273 273 274 274 275 275 275 276 276 276 276 277 277 277 277 277 277 278 278 278 278 278 278 278 279 279 280 282 283 284 285 286 286 286 285 284 282
271 271 271 270 270 269 269 268 268 267 266 264 263 263 264 264 265 266 266 267 268 268 269 270 271 272 272 273 274 274 274 275 275 275 275 275 276 276 277 277 276 276 277 277 277 277 277 277 277 278 278 279 280 282 283 284 285 285 285 284 283 282 279
269 269 269 268 268 268 268 267 267 267 266 264 263 262 263 263 264 265 266 267 268 269 270 270 271 272 272 273 273 273 274 274 274 274 275 275 275 275 275 275 275 275 276 276 276 276 276 277 277 277 278 279 281 282 283 284 284 284 284 283 281 279 276
266 266 266 266 266 265 265 266 265 265 264 263 262 262 262 263 264 265 266 267 268 269 270 270 271 271 272 272 272 273 273 273 273 274 274 274 274 274 274 274 275 275 275 276 276 276 276 277 277 278 279 280 281 282 283 283 283 283 282 281 279 276 274
265 264 264 264 263 263 263 263 263 263 262 262 261 261 261 262 263 264 265 266 267 268 269 270 271 271 271 272 272 272 272 273 273 273 273 273 274 274 274 274 274 275 275 275 276 276 277 277 278 278 279 280 281 282 282 282 282 281 280 278 276 273 273
264 264 264 263 262 261 261 261 261 261 261 261 261 260 261 261 262 263 264 266 267 268 269 270 271 271 271 271 272 272 272 272 272 272 273 273 273 273 273 274 274 274 274 275 276 276 277 278 279 280 280 281 282 282 282 281 281 279 278 275 273 271 271
264 263 263 262 261 260 260 260 260 260 260 260 260 260 261 262 263 263 265 266 267 268 269 270 271 271 271 271 271 271 271 272 272 272 272 272 273 273 273 273 273 274 274 275 276 277 278 279 280 281 281 282 282 281 281 280 279 277 275 272 270 270 271